Tanana, AK

12:15 PM AKDT on July 27, 2017 (GMT -0800)
Calhoun Memorial

Weather History for PATA - November, 2011

Change the Weather History Date:

Monday, November 14, 2011

  Actual Average Record
Temperature  
Mean Temperature -15 °F -  
Max Temperature -4 °F 9 °F 37 °F (2013)
Min Temperature -26 °F -4 °F -47 °F (1956)
Degree Days  
Heating Degree Days 80    
Moisture  
Dew Point -21 °F    
Average Humidity 78    
Maximum Humidity 83    
Minimum Humidity 70    
Precipitation  
Precipitation 0.00 in - - ()
Snow  
Snow 0.00 in - - ()
Snow Depth 10.00 in    
Sea Level Pressure  
Sea Level Pressure 29.94 in    
Wind  
Wind Speed 1 mph (WNW)    
Max Wind Speed 5 mph    
Max Gust Speed -    
Visibility 10 miles    
Events Snow    
Averages and records for this station are not official NWS values.
T = Trace of Precipitation, MM = Missing Value Source: NWS Daily Summary

Daily Weather History Graph

Daily Weather History Graph

Search for Another Location

Airport or City:

Trip Planner

Search our weather history database for the weather conditions in past years. The results will help you decide how hot, cold, wet, or windy it might be!

Date:

Astronomy

Nov. 14, 2011 Rise Set
Actual Time 9:43 AM AKST 4:01 PM AKST
Civil Twilight 8:40 AM AKST 5:04 PM AKST
Nautical Twilight 7:36 AM AKST 6:07 PM AKST
Astronomical Twilight 6:38 AM AKST 7:06 PM AKST
Moon 6:40 PM AKST (11/14) 1:51 PM AKST (11/14)
Length of Visible Light 8h 24m
Length of Day
6h 18m
Waning Gibbous, 85% of the Moon is Illuminated
Nov 14
Waning Gibbous
Nov 18
Last Quarter
Nov 24
New
Dec 2
First Quarter
Dec 10
Full

Hourly Weather History & Observations

Time (AKST) Temp. Windchill Dew Point Humidity Pressure Visibility Wind Dir Wind Speed Gust Speed Precip Events Conditions
12:52 AM -4.0 °F - -9.0 °F 79% 29.83 in 7.0 mi Calm Calm - 0.00 in Snow Light Snow
1:52 AM -6.0 °F - -11.0 °F 79% 29.83 in 10.0 mi Calm Calm - 0.00 in   Overcast
2:52 AM -9.0 °F - -13.0 °F 83% 29.84 in 10.0 mi Calm Calm - N/A   Overcast
3:52 AM -11.0 °F - -15.0 °F 83% 29.85 in 10.0 mi Calm Calm - N/A   Scattered Clouds
4:52 AM -16.1 °F -26.2 °F -20.9 °F 79% 29.86 in 10.0 mi North 3.5 mph - N/A   Clear
5:52 AM -11.0 °F - -17.0 °F 75% 29.86 in 10.0 mi Calm Calm - N/A   Overcast
6:52 AM -11.0 °F - -16.1 °F 78% 29.88 in 10.0 mi Calm Calm - N/A   Overcast
7:52 AM -11.9 °F - -17.0 °F 78% 29.88 in 10.0 mi Calm Calm - N/A   Overcast
8:52 AM -16.1 °F - -20.0 °F 82% 29.89 in 10.0 mi Calm Calm - N/A   Clear
9:52 AM -20.9 °F -34.3 °F -26.0 °F 77% 29.91 in 10.0 mi WNW 4.6 mph - N/A   Scattered Clouds
10:52 AM -18.9 °F - -24.0 °F 78% 29.92 in 10.0 mi Calm Calm - N/A   Scattered Clouds
11:52 AM -16.1 °F - -20.9 °F 79% 29.94 in 10.0 mi Calm Calm - N/A   Partly Cloudy
12:52 PM -13.0 °F - -18.9 °F 75% 29.94 in 10.0 mi Calm Calm - N/A   Clear
1:52 PM -11.0 °F - -16.1 °F 78% 29.95 in 10.0 mi Calm Calm - N/A   Clear
2:52 PM -9.0 °F - -15.0 °F 75% 29.96 in 10.0 mi Calm Calm - N/A   Clear
3:52 PM -13.0 °F -25.1 °F -18.0 °F 78% 29.98 in 10.0 mi WNW 4.6 mph - N/A   Partly Cloudy
4:52 PM -18.0 °F -30.9 °F -23.1 °F 78% 29.98 in 10.0 mi WNW 4.6 mph - N/A   Overcast
5:52 PM -20.0 °F - -25.1 °F 78% 30.00 in 10.0 mi Calm Calm - N/A   Mostly Cloudy
6:52 PM -24.0 °F - -29.0 °F 77% 30.01 in 10.0 mi Calm Calm - N/A   Mostly Cloudy
7:52 PM -24.0 °F - -29.9 °F 74% 30.03 in 10.0 mi Calm Calm - N/A   Overcast
8:52 PM -23.1 °F -36.8 °F -29.9 °F 70% 30.04 in 10.0 mi WSW 4.6 mph - N/A   Overcast
9:52 PM -26.0 °F - -29.9 °F 81% 30.06 in 10.0 mi Calm Calm - N/A   Overcast
10:52 PM -23.1 °F - -29.0 °F 74% 30.07 in 10.0 mi Calm Calm - N/A   Overcast
11:52 PM -20.9 °F - -27.0 °F 73% 30.09 in 10.0 mi Calm Calm - N/A   Mostly Cloudy